This is the latest recevied weather packets stored in our database for station/object K5OLV. If no packets are shown the sender has not sent any weather packets the latest 10 day(s).
| Time | Temp. | Humidity | Pressure | Rain* | Wind** | Luminosity | Snow |
|---|---|---|---|---|---|---|---|
| 1778011296 | 23.33° C | 48% | 1010.7 hPa | 0 mm | - | 364 W/m² | - |
| 1778010992 | 22.78° C | 49% | 1010.9 hPa | 0 mm | - | 408 W/m² | - |
| 1778010689 | 22.22° C | 50% | 1011.1 hPa | 0 mm | - | 379 W/m² | - |
| 1778010386 | 22.78° C | 50% | 1010.9 hPa | 0 mm | - | 313 W/m² | - |
| 1778010082 | 22.78° C | 47% | 1011 hPa | 0 mm | - | 398 W/m² | - |
| 1778009779 | 23.89° C | 46% | 1011 hPa | 0 mm | - | 581 W/m² | - |
| 1778009476 | 22.78° C | 47% | 1011.1 hPa | 0 mm | - | 597 W/m² | - |
| 1778009175 | 22.78° C | 48% | 1011.2 hPa | 0 mm | - | 633 W/m² | - |
| 1778008872 | 23.33° C | 49% | 1011.4 hPa | 0 mm | - | 556 W/m² | - |
| 1778008570 | 23.89° C | 48% | 1011.3 hPa | 0 mm | - | 582 W/m² | - |
| 1778008268 | 23.89° C | 47% | 1011.6 hPa | 0 mm | - | 642 W/m² | - |
| 1778007963 | 23.89° C | 46% | 1011.5 hPa | 0 mm | - | 717 W/m² | - |
| 1778007658 | 23.89° C | 47% | 1011.5 hPa | 0 mm | - | 658 W/m² | - |
| 1778007355 | 23.33° C | 46% | 1011.5 hPa | 0 mm | - | 452 W/m² | - |
| 1778007052 | 23.33° C | 47% | 1011.5 hPa | 0 mm | - | 581 W/m² | - |
| 1778006748 | 23.33° C | 48% | 1011.2 hPa | 0 mm | - | 505 W/m² | - |
| 1778006445 | 23.89° C | 48% | 1011.5 hPa | 0 mm | - | 605 W/m² | - |
| 1778006142 | 23.33° C | 46% | 1011.6 hPa | 0 mm | - | 616 W/m² | - |
| 1778005840 | 23.89° C | 44% | 1011.6 hPa | 0 mm | - | 588 W/m² | - |
| 1778005536 | 22.78° C | 45% | 1011.7 hPa | 0 mm | - | 638 W/m² | - |
| 1778005232 | 23.33° C | 45% | 1012.2 hPa | 0 mm | - | 718 W/m² | - |
| 1778004929 | 22.78° C | 46% | 1011.9 hPa | 0 mm | - | 690 W/m² | - |
| 1778004627 | 22.78° C | 44% | 1012.2 hPa | 0 mm | - | 820 W/m² | - |
| 1778004322 | 23.33° C | 45% | 1012 hPa | 0 mm | - | 586 W/m² | - |
| 1778004021 | 22.78° C | 47% | 1012.1 hPa | 0 mm | - | 764 W/m² | - |
* Rain latest hour (hover to see other rain measurements)
** Current wind speed in m/s (hover to see current wind gust speed)